Vertical_Velocity
-0 -1 0 1 0 1 -0 1 1 -1 1 -0 -0 -0 -0 -0 -1 -1 -1 -1 -1 -1 -1 -1 -1 -2 -1 1 -0 -1 -1 0 -0 -0 -0 -0 0 -0 -2 -1 -1 -2 4 1 -1 -1 -4
2 -1 -0 0 1 1 1 1 1 -0 -0 0 -0 -0 0 0 1 -0 -0 -1 -1 -1 -1 -2 -2 -1 -2 -1 -1 -1 -1 -1 -0 -1 -1 -1 -1 0 0 0 -1 -1 -1 2 1 0 -0
0 1 1 -1 -0 2 1 1 1 1 -0 -1 -0 1 -0 -1 1 -0 -0 -1 -0 -1 -1 -1 -0 -2 -2 -1 -1 -1 -1 -1 -1 0 -1 -1 -1 -1 1 1 -0 -1 -1 0 1 -0 1
-0 0 1 1 -0 1 1 1 2 0 0 -1 0 1 0 -2 -0 -0 -0 -1 -0 -1 -2 -1 -1 -1 -1 -1 -1 -1 -1 -0 -1 0 -0 -1 -1 -1 1 1 1 -1 -2 -4 -0 -0 -0
-0 0 0 0 2 1 1 2 1 1 1 -0 0 -0 0 -1 -0 -0 -1 -1 -1 -2 -1 -2 -1 -1 -1 -1 -1 -1 -1 -0 -0 -0 -1 -1 -2 -2 -2 -1 -2 1 4 1 -4 -2 -2
-0 -1 -0 0 0 1 1 1 2 1 1 1 -1 1 1 -1 -1 0 -0 -1 -1 -2 -1 -1 -1 -1 -0 -1 0 -0 -0 -0 -1 -1 -1 -1 -0 -0 -2 -4 -1 2 4 -2 -2 -1 -2
3 0 -0 -0 0 1 2 2 2 2 0 1 -0 -0 -0 -1 -1 -1 -1 -0 -2 0 -1 -0 -1 -1 -1 -1 -1 -1 -0 -1 -0 0 -2 -1 -0 -2 0 -2 -3 -2 -1 -1 -4 1 -5
5 1 2 1 -1 -0 2 1 2 1 2 1 0 0 -0 -1 -0 -1 -1 -0 -1 -1 -4 -1 -1 -1 -1 -1 -1 -1 -1 -1 -2 -2 -1 0 -2 0 0 1 1 1 -0 -1 -1 0 -2
1 3 2 0 2 -1 -1 1 3 1 2 2 1 1 0 0 -1 -2 -1 -2 -1 -2 -1 -1 -1 -1 -1 -1 -1 -2 -2 0 -0 -1 -2 -3 -0 -0 1 0 0 0 0 0 1 -1 0
12 0 -1 3 -0 0 1 0 1 3 1 2 1 1 0 0 -0 -1 -1 -1 -1 -3 -2 -1 -1 -1 0 -0 -1 -1 -1 -2 -0 0 -1 0 0 -0 -2 -1 -1 -2 -1 -1 -1 -2 -2
-14 4 -0 3 2 0 1 0 1 1 2 2 2 1 -0 0 -0 1 -1 -1 -2 -1 1 -2 -1 -1 -2 -2 1 1 -0 -2 -1 -1 -1 -2 -1 -0 -0 0 -1 -0 -1 -1 -2 -1 -3
5 -7 18 11 4 1 1 1 0 1 2 2 3 1 -0 0 1 0 -3 -1 -3 -1 -5 -0 0 -1 -1 -1 -2 -1 1 3 2 1 -0 -1 -0 -1 0 -1 -3 -1 -0 1 1 1 -2
3 -5 0 2 9 -1 2 2 3 1 2 1 4 3 1 -1 5 -0 -0 -1 -2 -2 -1 -1 -1 -1 -2 -2 -1 -0 -3 -1 0 0 -0 -1 0 0 -0 1 1 2 -3 -1 -4 -2 -2
-3 -1 -20 19 2 -0 -5 3 4 2 3 3 3 2 2 -1 1 1 2 2 -1 3 -1 -0 -1 0 -1 2 -0 0 -0 -2 -3 -3 1 1 -3 1 1 -1 -3 -3 -3 -1 -2 -1 -1
-2 -1 8 -22 21 -2 2 -2 -2 6 3 -1 -1 3 1 2 2 3 2 2 -8 -2 -5 -2 -0 0 -1 0 -1 -1 -1 -3 1 0 -4 -1 -1 -3 -1 1 2 -1 -2 -2 -2 0 -2
4 3 17 -4 4 13 9 12 2 2 3 -1 -0 6 7 2 2 3 6 -4 1 -2 -2 1 -2 -0 -3 -1 -1 1 -2 -1 -1 1 0 -1 -3 -1 -1 -0 1 1 -1 -1 -0 -4 -1
8 2 19 -11 3 4 15 3 3 -2 2 8 4 -0 -2 1 5 5 1 -2 -3 -0 -0 1 2 -2 4 -3 2 1 -1 -1 0 3 2 3 -0 -1 -3 -1 1 -0 -1 -1 -3 -0 -4
3 -2 4 -20 -18 14 36 16 10 12 13 9 -1 -3 -0 8 1 0 -3 -3 -9 -0 -0 2 2 2 2 -4 2 3 -4 -0 -2 -3 -3 0 0 0 -2 0 1 1 2 2 -1 -2 0
7 1 5 -8 -10 2 14 20 18 14 4 14 2 7 2 9 -3 -6 -1 -1 -1 3 -0 -1 2 -0 -1 -1 -1 -1 1 -0 0 -2 2 -2 -2 -3 -1 -1 0 -1 1 -0 0 1 -5
8 6 -7 -1 -11 -2 4 8 10 1 14 15 8 6 5 5 -1 -1 -3 -2 4 0 1 2 -1 3 3 1 -0 -1 -1 1 -1 -2 -3 2 -3 -4 -3 -2 -1 -2 -2 1 4 -2 -1
11 2 -3 8 -11 3 13 17 3 1 7 35 6 -9 -6 -4 -12 -4 2 2 -0 -3 2 3 1 -1 5 1 -1 -2 0 -2 -0 1 -3 0 -3 -2 0 1 2 -0 -3 1 -6 8 -1
12 -1 -4 -2 -3 8 -4 -28 5 44 24 3 17 -5 -4 -3 0 1 -1 -7 -4 0 2 0 -4 2 3 -1 -1 -4 3 -2 -2 0 0 -1 -4 -3 -9 0 -0 -6 -6 -1 0 1 -15
8 5 1 -2 -2 8 3 -0 -6 6 43 7 -3 -1 4 -2 -1 6 -13 -3 -0 2 6 5 5 1 -1 2 2 -1 1 -1 4 -1 4 -0 -1 -0 -4 -1 -0 -10 -5 -2 0 3 7
3 1 -2 -1 -2 3 4 -1 1 12 3 5 8 17 -1 -6 0 -2 0 1 -2 8 8 0 -1 3 -3 -1 2 4 0 -1 -2 0 1 -2 -1 -1 -1 -2 -3 -1 -2 -2 -3 -1 -3
2 1 -8 6 3 -1 3 -8 1 3 3 1 3 7 12 -6 5 3 3 -1 -0 7 7 5 0 5 3 3 4 -0 -5 1 -4 0 1 3 2 0 -2 -0 -10 -3 -5 0 -3 -3 -2
-2 2 -9 7 1 -2 -0 2 -2 3 3 0 5 18 12 4 -10 5 5 0 4 1 4 -3 -2 3 2 2 2 -2 -5 0 -0 -1 -1 3 3 1 2 1 -3 0 -1 -1 1 -25 -2
1 8 -7 5 -2 1 -2 -0 4 -3 2 0 12 9 10 3 1 4 0 -0 5 8 2 -1 -0 -2 3 -1 -1 -3 -5 -4 -3 -2 -3 1 1 -5 3 -2 -10 -5 1 1 -1 -14 -1
1 6 -8 3 5 4 2 5 6 -4 -3 -2 6 2 4 -0 4 -0 7 5 3 -5 -1 -1 5 -8 2 1 0 -4 0 -2 -0 -1 -2 0 -1 -6 6 2 -22 1 -2 -4 1 -4 -2
5 2 -0 -3 5 -1 42 11 -4 -3 -3 5 11 5 9 4 5 0 1 3 11 5 -6 -4 -0 -0 4 -2 1 -3 -1 -1 0 -3 -1 -8 -9 -5 -9 -3 -3 -4 0 -2 -2 3 -1
Height
3135 3136 3138 3139 3141 3142 3143 3144 3145 3145 3146 3146 3146 3146 3146 3146 3146 3145 3144 3143 3143 3142 3140 3139 3139 3138 3137 3137 3137 3136 3136 3136 3136 3136 3136 3137 3138 3139 3139 3140 3141 3141 3143 3143 3145 3146 3147
3132 3134 3136 3137 3139 3140 3141 3143 3144 3144 3145 3146 3146 3146 3145 3145 3145 3144 3143 3143 3142 3141 3140 3139 3138 3137 3136 3136 3135 3134 3134 3134 3134 3135 3135 3135 3136 3138 3139 3140 3141 3141 3142 3142 3142 3143 3144
3129 3131 3133 3135 3137 3138 3139 3141 3142 3143 3144 3144 3145 3145 3145 3145 3144 3144 3143 3142 3141 3140 3139 3138 3136 3135 3135 3135 3133 3133 3133 3133 3134 3134 3134 3134 3135 3137 3138 3139 3139 3140 3141 3141 3141 3141 3141
3125 3127 3129 3131 3133 3135 3137 3139 3140 3141 3141 3143 3143 3143 3143 3144 3144 3144 3142 3142 3141 3139 3138 3136 3135 3134 3133 3132 3132 3132 3133 3133 3133 3133 3133 3134 3134 3136 3137 3138 3138 3139 3140 3140 3140 3140 3140
3121 3123 3125 3127 3129 3132 3134 3136 3137 3139 3139 3141 3141 3142 3142 3142 3142 3142 3141 3141 3140 3138 3137 3135 3134 3133 3132 3132 3132 3132 3132 3132 3132 3133 3133 3133 3134 3135 3136 3137 3138 3139 3140 3140 3139 3139 3140
3116 3119 3121 3123 3125 3128 3130 3132 3134 3136 3137 3138 3139 3140 3140 3140 3141 3141 3140 3139 3138 3137 3136 3134 3133 3134 3132 3132 3130 3130 3130 3130 3130 3131 3132 3133 3133 3133 3134 3135 3138 3138 3140 3139 3138 3139 3138
3111 3112 3116 3118 3120 3123 3125 3128 3130 3132 3134 3136 3137 3137 3138 3139 3139 3139 3139 3138 3140 3138 3135 3133 3132 3131 3130 3130 3129 3128 3128 3128 3129 3130 3130 3131 3133 3132 3134 3135 3136 3137 3137 3137 3136 3137 3136
3104 3106 3109 3113 3115 3118 3120 3123 3126 3129 3131 3132 3134 3135 3135 3136 3137 3137 3137 3136 3135 3136 3132 3130 3129 3128 3128 3128 3128 3128 3128 3129 3128 3128 3129 3132 3131 3133 3133 3134 3134 3134 3134 3134 3134 3134 3133
3097 3099 3102 3106 3109 3112 3115 3118 3121 3124 3127 3129 3130 3132 3133 3134 3134 3135 3135 3135 3134 3133 3131 3127 3126 3126 3127 3128 3127 3128 3128 3128 3128 3128 3128 3129 3132 3131 3132 3132 3133 3133 3134 3134 3135 3132 3131
3088 3092 3095 3098 3102 3106 3109 3112 3115 3119 3123 3125 3127 3128 3130 3131 3134 3133 3133 3133 3133 3131 3128 3127 3125 3126 3126 3126 3128 3127 3128 3130 3128 3129 3128 3130 3130 3131 3131 3131 3132 3131 3132 3132 3132 3132 3131
3076 3081 3088 3091 3094 3098 3102 3106 3110 3113 3117 3121 3123 3124 3126 3127 3129 3131 3132 3131 3131 3131 3130 3126 3124 3124 3124 3127 3127 3127 3127 3127 3128 3128 3130 3130 3130 3130 3130 3130 3131 3132 3131 3131 3130 3129 3128
3070 3072 3077 3081 3087 3090 3095 3098 3103 3107 3111 3115 3118 3120 3121 3124 3125 3127 3128 3129 3130 3133 3126 3123 3122 3122 3124 3125 3126 3126 3127 3127 3127 3127 3127 3128 3128 3129 3129 3128 3129 3129 3130 3128 3127 3126 3127
3064 3068 3069 3072 3077 3082 3087 3091 3095 3100 3105 3109 3112 3114 3117 3118 3122 3123 3124 3127 3130 3127 3125 3122 3120 3121 3122 3124 3124 3124 3125 3126 3127 3127 3126 3126 3126 3126 3127 3128 3128 3128 3128 3128 3129 3129 3127
3058 3058 3064 3065 3068 3072 3076 3083 3088 3093 3097 3102 3105 3109 3110 3113 3116 3118 3120 3123 3125 3121 3120 3119 3120 3121 3121 3122 3122 3122 3122 3122 3123 3125 3126 3126 3125 3126 3126 3126 3127 3127 3128 3130 3134 3130 3127
3050 3050 3050 3059 3061 3065 3067 3072 3080 3086 3090 3095 3100 3102 3104 3107 3110 3113 3116 3115 3116 3117 3117 3117 3119 3119 3119 3119 3121 3120 3120 3120 3121 3122 3125 3125 3125 3125 3125 3125 3126 3125 3127 3129 3129 3128 3127
3042 3043 3044 3049 3053 3058 3062 3066 3071 3077 3082 3086 3092 3095 3098 3101 3104 3106 3108 3106 3110 3111 3114 3115 3116 3117 3116 3116 3118 3117 3117 3118 3118 3119 3120 3121 3122 3123 3123 3123 3123 3122 3124 3125 3126 3131 3128
3033 3036 3036 3042 3045 3049 3054 3058 3062 3067 3072 3078 3082 3085 3089 3093 3097 3098 3097 3099 3103 3106 3110 3112 3112 3112 3113 3114 3115 3115 3116 3116 3116 3117 3118 3119 3120 3122 3122 3123 3121 3121 3120 3121 3123 3124 3123
3023 3029 3029 3037 3040 3043 3048 3052 3056 3060 3063 3066 3070 3074 3080 3083 3088 3086 3088 3093 3097 3100 3104 3105 3107 3108 3109 3110 3111 3112 3111 3113 3113 3115 3117 3118 3118 3117 3119 3120 3120 3120 3117 3117 3118 3118 3116
3013 3020 3023 3029 3032 3035 3038 3043 3048 3052 3057 3060 3061 3067 3071 3074 3074 3077 3083 3088 3091 3094 3096 3098 3100 3102 3103 3105 3109 3106 3107 3109 3110 3112 3113 3114 3115 3117 3115 3117 3115 3115 3114 3113 3115 3115 3109
3003 3010 3016 3019 3026 3030 3032 3036 3041 3045 3050 3055 3057 3058 3062 3065 3064 3072 3078 3080 3083 3086 3089 3090 3093 3096 3098 3098 3101 3102 3104 3105 3106 3108 3110 3111 3111 3112 3114 3113 3114 3113 3112 3111 3111 3108 3101
2994 3000 3006 3010 3017 3022 3026 3030 3035 3039 3044 3048 3049 3049 3054 3054 3058 3066 3071 3071 3074 3077 3081 3084 3086 3090 3091 3093 3096 3097 3099 3101 3103 3103 3105 3107 3106 3108 3109 3108 3107 3105 3106 3105 3101 3097 3099
2984 2991 2998 3002 3011 3014 3019 3021 3025 3032 3036 3038 3041 3043 3048 3051 3055 3059 3061 3061 3066 3070 3073 3075 3078 3084 3087 3088 3090 3092 3095 3096 3098 3098 3099 3100 3100 3101 3101 3101 3099 3095 3095 3094 3090 3088 3085
2974 2982 2989 2994 3001 3006 3011 3016 3021 3026 3026 3029 3033 3037 3041 3043 3046 3051 3050 3054 3058 3062 3065 3069 3074 3077 3080 3084 3086 3088 3089 3092 3093 3094 3093 3095 3096 3097 3095 3095 3092 3086 3081 3081 3081 3081 3081
2965 2973 2979 2985 2993 2997 3003 3008 3014 3020 3024 3025 3027 3032 3035 3034 3038 3042 3045 3049 3052 3056 3060 3064 3069 3073 3076 3078 3081 3082 3083 3086 3088 3089 3090 3089 3092 3095 3092 3092 3090 3074 3074 3074 3073 3073 3073
2956 2964 2970 2975 2983 2989 2995 3001 3008 3015 3019 3020 3021 3025 3021 3025 3031 3034 3037 3041 3045 3049 3053 3058 3064 3068 3070 3073 3076 3077 3080 3082 3080 3080 3081 3084 3087 3090 3089 3086 3073 3068 3068 3068 3067 3066 3065
2949 2957 2963 2967 2975 2981 2988 2995 3003 3009 3010 3014 3014 3015 3016 3019 3021 3026 3029 3034 3037 3042 3048 3054 3059 3062 3066 3067 3070 3070 3073 3074 3073 3071 3072 3076 3079 3085 3083 3082 3073 3062 3062 3062 3061 3054 3055
2942 2948 2955 2960 2967 2974 2980 2988 2995 3000 3004 3007 3008 3008 3011 3012 3016 3021 3023 3026 3031 3036 3042 3048 3052 3056 3060 3060 3063 3065 3066 3068 3067 3065 3066 3069 3072 3073 3076 3075 3060 3057 3056 3055 3056 3054 3048
2935 2941 2948 2953 2961 2966 2972 2981 2987 2992 2995 3000 3002 3002 3006 3009 3011 3014 3018 3022 3026 3031 3037 3043 3050 3050 3053 3055 3058 3057 3057 3059 3058 3058 3059 3062 3064 3063 3068 3069 3058 3051 3051 3051 3047 3042 3040
2927 2934 2940 2947 2954 2960 2962 2972 2981 2984 2989 2993 2995 2998 3002 3006 3009 3012 3016 3021 3024 3028 3033 3038 3042 3042 3046 3048 3050 3050 3050 3051 3051 3052 3052 3056 3055 3055 3055 3047 3046 3045 3043 3040 3036 3032 3030